STARLINK-4181 (52882 NORAD) Tracking and Keplerian Element Data

This shows tracking and keplerian element data for the satellite.

Feedback or suggestion? Click here.




ElementValue
Catalog52882
NameSTARLINK-4181
Epoch Orbit130
Epoch Day270.00001157
Epoch Year2022
RAAN269.0888
Inclination53.2171
Eccentricity0.0001926
Argument of Perigee39.7125
Mean Anonmoly175.1612
Mean Motion15.13164478
Decay Rate-0.01086136
L11 52882U 22062BE 22270.00001157 -.01086136 00000+0 -65429-1 0 9997
L22 52882 53.2171 269.0888 0001926 39.7125 175.1612 15.13164478 1309

Live tracking and technical data element details for STARLINK-4181 (NORAD 52882). STARLINK-4181 can be tracked NOW for your location showing map with azimuth and elevation plus other details from your city location.

Track the satellite on the map from your city or location and see movement details for azimuth, elevation, latitude, longitude, range, height, and movement on the map or in text.







IsCatalogInMostPopularTable: catalog: 52882, numindb: 12
Update: records affected: 1



GetName: 52882 STARLINK-4181

Hit Count: updated at: Thu, 06 Oct 2022 04:03:03 GMT